Regional Weather Roundup
Issued by NWS Goodland, KS

Home | Current Version | Previous Version | Text Only | Print | Product List | Glossary Off
Versions: 1 2 3 4 5 6 7 8 9 10 11 12 13 14 15 16 17 18 19 20 21 22 23 24 25 26 27 28 29 30 31 32 33 34 35 36 37 38 39 40 41 42 43 44 45 46 47 48 49 50

120
ASUS43 KGLD 272159
RWRGLD

GOODLAND FORECAST AREA HOURLY WEATHER ROUNDUP
NATIONAL WEATHER SERVICE GOODLAND KS
400 PM MDT TUE SEP 27 2016

...OFFICIAL OBSERVATIONS...

CITY           SKY/WX    TMP DP  RH WIND       PRES   REMARKS
GOODLAND KS    SUNNY     86  32  14 NW9       30.03F
HILL CITY KS   SUNNY     85  49  28 SW6       29.97F HAZE
IMPERIAL NEB   SUNNY     85  33  15 W10       30.01F
MCCOOK NEB     SUNNY     85  43  22 W9        29.97F
AKRON CO       SUNNY     82  23  11 NE6       30.10F
BURLINGTON CO  SUNNY     84  30  14 NW6       30.08F
LIMON CO       SUNNY     81  23  11 VRB3      30.13F
$$

...UNOFFICIAL OBSERVATIONS...

CITY           SKY/WX    TMP DP  RH WIND       PRES   REMARKS
COLBY KS       SUNNY     88  43  20 SW6       30.02S
LENORA KS        N/A     82  32  16 MISG        N/A
NORTON KS      SUNNY     86  32  14 NW12      29.96
SHARON SPRINGS   N/A     87  40  18 W6G13       N/A
KIT CARSON CO    N/A     85  38  18 MISG        N/A
$$




USA.gov is the U.S. government's official web portal to all federal, state and local government web resources and services.